Central Park, NY

9:04 AM EDT on March 26, 2017 (GMT -0400)
Central Park

Weather History for KNYC - September, 2012

Change the Weather History Date:

Saturday, September 1, 2012

  Actual Average Record
Temperature  
Mean Temperature 83 °F 73 °F  
Max Temperature 91 °F 80 °F 97 °F (1953)
Min Temperature 74 °F 66 °F 51 °F (1872)
Degree Days  
Heating Degree Days 0 0  
Month to date heating degree days 0 0  
Since 1 July heating degree days 0 2  
Cooling Degree Days 18 8  
Month to date cooling degree days 18 8  
Year to date cooling degree days 1136 962  
Growing Degree Days 32 (Base 50)    
Moisture  
Dew Point 63 °F    
Average Humidity 57    
Maximum Humidity 79    
Minimum Humidity 34    
Precipitation  
Precipitation 0.00 in 0.13 in 3.84 in (1927)
Month to date precipitation 0.00 0.13  
Year to date precipitation 24.59 33.37  
Snow  
Snow 0.00 in 0.00 in 0.00 in (2002)
Month to date snowfall 0.0 0.0  
Since 1 July snowfall 0.0 0.0  
Snow Depth 0.00 in    
Sea Level Pressure  
Sea Level Pressure 29.99 in    
Wind  
Wind Speed 5 mph (NNW)    
Max Wind Speed 12 mph    
Max Gust Speed 20 mph    
Visibility 10 miles    
Events      
T = Trace of Precipitation, MM = Missing Value Source: NWS Daily Summary

Daily Weather History Graph

Daily Weather History Graph

Search for Another Location

Airport or City:

Trip Planner

Search our weather history database for the weather conditions in past years. The results will help you decide how hot, cold, wet, or windy it might be!

Date:

Astronomy

Sep. 01, 2012 Rise Set
Actual Time 6:23 AM EDT 7:27 PM EDT
Civil Twilight 5:55 AM EDT 7:55 PM EDT
Nautical Twilight 5:21 AM EDT 8:28 PM EDT
Astronomical Twilight 4:46 AM EDT 9:03 PM EDT
Moon 7:41 PM EDT (9/1) 7:28 AM EDT (9/1)
Length of Visible Light 14h 00m
Length of Day
13h 04m
Full, 99% of the Moon is Illuminated
Sep 1
Full
Sep 8
Last Quarter
Sep 15
New
Sep 22
First Quarter
Sep 29
Full

Hourly Weather History & Observations

Time (EDT) Temp. Heat Index Dew Point Humidity Pressure Visibility Wind Dir Wind Speed Gust Speed Precip Events Conditions
12:51 AM 79.0 °F - 60.1 °F 52% 29.92 in 10.0 mi North - - N/A   Clear
1:51 AM 80.1 °F 80.9 °F 60.1 °F 50% 29.92 in 10.0 mi North - - N/A   Clear
2:51 AM 79.0 °F - 59.0 °F 50% 29.92 in 10.0 mi Variable 5.8 mph - N/A   Clear
3:51 AM 79.0 °F - 59.0 °F 50% 29.93 in 10.0 mi Variable 4.6 mph - N/A   Clear
4:51 AM 78.1 °F - 59.0 °F 52% 29.94 in 10.0 mi West 5.8 mph - N/A   Clear
5:51 AM 78.1 °F - 60.1 °F 54% 29.95 in 10.0 mi WNW 3.5 mph - N/A   Clear
6:51 AM 78.1 °F - 61.0 °F 56% 29.97 in 10.0 mi West 4.6 mph - N/A   Clear
7:51 AM 78.1 °F - 62.1 °F 58% 29.99 in 10.0 mi Calm Calm - N/A   Clear
8:51 AM 79.0 °F - 61.0 °F 54% 29.99 in 10.0 mi Variable 3.5 mph - N/A   Clear
9:51 AM 80.1 °F 81.1 °F 61.0 °F 52% 30.00 in 10.0 mi Calm Calm - N/A   Clear
10:51 AM 82.0 °F 83.1 °F 63.0 °F 52% 30.00 in 10.0 mi NNE 8.1 mph - N/A   Clear
11:51 AM 86.0 °F 87.3 °F 64.0 °F 48% 30.00 in 10.0 mi North - - N/A   Clear
12:51 PM 88.0 °F 89.3 °F 64.0 °F 45% 30.00 in 10.0 mi Variable 6.9 mph 17.3 mph N/A   Clear
1:51 PM 88.0 °F 87.9 °F 61.0 °F 40% 29.99 in 10.0 mi Variable 6.9 mph - N/A   Clear
2:51 PM 90.0 °F 88.8 °F 57.9 °F 34% 29.98 in 10.0 mi NNW 4.6 mph - N/A   Clear
3:51 PM 90.0 °F 89.7 °F 60.1 °F 37% 29.97 in 10.0 mi Variable 3.5 mph - N/A   Mostly Cloudy
4:51 PM 82.0 °F 84.1 °F 66.0 °F 58% 29.98 in 9.0 mi Variable 6.9 mph - N/A   Scattered Clouds
5:51 PM 81.0 °F 83.0 °F 66.0 °F 60% 29.99 in 9.0 mi SSE 8.1 mph - N/A   Scattered Clouds
6:51 PM 79.0 °F - 66.0 °F 64% 29.99 in 9.0 mi SE 8.1 mph - N/A   Scattered Clouds
7:51 PM 78.1 °F - 66.0 °F 66% 30.01 in 10.0 mi SSE 9.2 mph - N/A   Mostly Cloudy
8:51 PM 75.9 °F - 66.0 °F 71% 30.04 in 10.0 mi Variable 4.6 mph - N/A   Scattered Clouds
9:51 PM 75.0 °F - 66.9 °F 76% 30.06 in 10.0 mi Variable 3.5 mph - N/A   Clear
10:51 PM 75.0 °F - 68.0 °F 79% 30.06 in 9.0 mi Variable 3.5 mph - N/A   Mostly Cloudy
11:51 PM 75.0 °F - 66.9 °F 76% 30.07 in 9.0 mi East 4.6 mph - N/A   Overcast